Location: Bronschhofen
(47.4788°N, 9.0353°E)
Time: 08:40:01
(UTC+00:00)

Cosmos 1943 Rocket - Visible Passes

Search period start: 06 October 2022 00:00
Search period end: 16 October 2022 00:00
Orbit: 814 x 842 km, 71.0° (Epoch: 06 October)

Date Brightness Start Highest point End Pass type
(mag) Time Alt. Az. Time Alt. Az. Time Alt. Az.
06 Oct 4.0 19:58:38 10° N 20:01:06 19° NNE 20:01:06 19° NNE visible
06 Oct 4.8 21:41:47 10° NNW 21:42:37 15° NNW 21:42:37 15° NNW visible
07 Oct 4.0 19:39:28 10° N 19:42:12 19° NNE 19:42:12 19° NNE visible
07 Oct 4.6 21:22:30 10° NNW 21:23:42 17° NNW 21:23:42 17° NNW visible
08 Oct 3.9 19:20:19 10° N 19:23:18 18° NNE 19:23:18 18° NNE visible
08 Oct 4.4 21:03:14 10° NNW 21:04:49 20° NNW 21:04:49 20° NNW visible
09 Oct 3.9 19:01:11 10° N 19:04:26 17° NE 19:04:26 17° NE visible
09 Oct 4.2 20:43:58 10° NNW 20:45:57 23° NNW 20:45:57 23° NNW visible
10 Oct 3.9 18:42:04 10° N 18:45:26 16° NE 18:45:36 16° NE visible
10 Oct 3.9 20:24:43 10° NNW 20:27:07 26° NNW 20:27:07 26° NNW visible
11 Oct 3.9 18:22:58 10° N 18:26:02 15° NE 18:26:47 14° NE visible
11 Oct 3.6 20:05:28 10° NNW 20:08:18 30° N 20:08:18 30° N visible
12 Oct 4.0 18:03:54 10° N 18:06:37 14° NE 18:08:00 13° NE visible
12 Oct 3.3 19:46:14 10° NNW 19:49:31 34° N 19:49:31 34° N visible
12 Oct 5.0 21:30:36 10° NW 21:31:02 12° NW 21:31:02 12° NW visible
13 Oct 4.1 17:44:52 10° N 17:47:12 13° NNE 17:49:15 11° NE visible
13 Oct 3.0 19:27:00 10° NNW 19:30:46 38° N 19:30:46 38° N visible
13 Oct 4.7 21:11:11 10° NW 21:12:17 15° NW 21:12:17 15° NW visible
14 Oct 4.1 17:25:55 10° NNE 17:27:47 12° NNE 17:29:38 10° NE visible
14 Oct 2.8 19:07:46 10° NNW 19:12:03 40° NNE 19:12:03 40° NNE visible
14 Oct 4.5 20:51:47 10° NW 20:53:35 19° NW 20:53:35 19° NW visible
15 Oct 4.1 17:07:08 10° NNE 17:08:21 11° NNE 17:09:34 10° NE visible
15 Oct 2.7 18:48:33 10° NNW 18:53:24 39° NE 18:53:24 39° NE visible
15 Oct 4.1 20:32:25 10° NW 20:34:55 24° WNW 20:34:55 24° WNW visible
